Zurück zum Katalog

NINGXIA-1 2

AktivWissenschaftLEO
NORAD 44780·PAYLOAD·🇨🇳 China

Gestartet Nov 13, 2019 von Taiyuan Satellite Launch Center

Loading…

Nächste Überflüge (nächste 24 Stunden)

TLE

AktuellSource: Space-Track

Epoche: Sep 14, 2026, 14:16 UTC

1 44780U 19076B   26257.59483880  .00000005  00000-0  87374-4 0  9991
2 44780  45.0079 140.6701 0006449 221.4078 138.6268 14.02128052350407

Verfolge NINGXIA-1 2 in Echtzeit mit AllMySat

Download on the App Store